BAW4L TKPK-TAPA

Flight info

Callsign BAW4L
Flight time 0h 15m
Altitude 11000
Route SKB G633 ANU
Aircraft B772/H-SDE2E3FGHIJ5LORVWXY/LB1D1

Departure

Time 2026-04-16 10:23
Airport Robert L. Bradshaw International Airport (TKPK)

Arrival

Time 2026-04-16 10:39
Airport V. C. Bird International Airport (TAPA)
Time Latitude Longitude Altitude Speed Heading
2026-04-16 10:05 17.30983 -62.71671 158 ft 0 kts 185°
2026-04-16 10:17 17.31023 -62.71668 160 ft 0 kts 185°
2026-04-16 10:19 17.31022 -62.71668 160 ft 0 kts 187°
2026-04-16 10:20 17.31021 -62.71668 160 ft 0 kts 191°
2026-04-16 10:20 17.30985 -62.71712 160 ft 18 kts 249°
2026-04-16 10:20 17.30942 -62.71834 163 ft 18 kts 252°
2026-04-16 10:20 17.30877 -62.71948 164 ft 18 kts 236°
2026-04-16 10:21 17.30807 -62.72058 165 ft 18 kts 236°
2026-04-16 10:21 17.30738 -62.72170 166 ft 18 kts 243°
2026-04-16 10:21 17.30717 -62.72300 173 ft 18 kts 266°
2026-04-16 10:21 17.30709 -62.72432 179 ft 18 kts 266°
2026-04-16 10:22 17.30678 -62.72561 179 ft 18 kts 246°
2026-04-16 10:22 17.30602 -62.72666 179 ft 18 kts 214°
2026-04-16 10:22 17.30535 -62.72725 179 ft 10 kts 270°
2026-04-16 10:22 17.30557 -62.72738 179 ft 4 kts 25°
2026-04-16 10:23 17.30581 -62.72714 179 ft 12 kts 50°
2026-04-16 10:23 17.30873 -62.72266 179 ft 139 kts 58°
2026-04-16 10:23 17.31547 -62.71154 752 ft 205 kts 60°
2026-04-16 10:23 17.32364 -62.69833 2256 ft 225 kts 63°
2026-04-16 10:24 17.32786 -62.68209 3391 ft 239 kts 95°
2026-04-16 10:24 17.32393 -62.66533 4322 ft 245 kts 107°
2026-04-16 10:24 17.31872 -62.64792 5361 ft 255 kts 108°
2026-04-16 10:24 17.31344 -62.63000 6495 ft 261 kts 108°
2026-04-16 10:25 17.30812 -62.61163 7532 ft 264 kts 107°
2026-04-16 10:25 17.30284 -62.59312 8406 ft 270 kts 107°
2026-04-16 10:25 17.29745 -62.57393 8939 ft 272 kts 107°
2026-04-16 10:25 17.29220 -62.55498 9012 ft 275 kts 106°
2026-04-16 10:26 17.28690 -62.53573 9020 ft 277 kts 106°
2026-04-16 10:26 17.28336 -62.52281 9019 ft 281 kts 106°
2026-04-16 10:26 17.27802 -62.50323 9015 ft 280 kts 106°
2026-04-16 10:26 17.27268 -62.48361 9019 ft 280 kts 106°
2026-04-16 10:27 17.26738 -62.46411 9021 ft 277 kts 106°
2026-04-16 10:27 17.26215 -62.44482 9017 ft 274 kts 106°
2026-04-16 10:27 17.25701 -62.42591 9022 ft 277 kts 106°
2026-04-16 10:27 17.25172 -62.40643 9020 ft 280 kts 106°
2026-04-16 10:28 17.24636 -62.38668 9024 ft 281 kts 106°
2026-04-16 10:28 17.24107 -62.36720 9017 ft 279 kts 106°
2026-04-16 10:28 17.23584 -62.34795 9000 ft 279 kts 106°
2026-04-16 10:28 17.23056 -62.32852 9021 ft 278 kts 106°
2026-04-16 10:29 17.22529 -62.30915 9022 ft 276 kts 106°
2026-04-16 10:29 17.22003 -62.28981 8825 ft 278 kts 106°
2026-04-16 10:29 17.21476 -62.27043 8567 ft 275 kts 107°
2026-04-16 10:29 17.20956 -62.25132 8279 ft 271 kts 107°
2026-04-16 10:30 17.20437 -62.23246 7941 ft 267 kts 108°
2026-04-16 10:30 17.19659 -62.21521 7611 ft 262 kts 122°
2026-04-16 10:30 17.18657 -62.19928 7289 ft 262 kts 124°
2026-04-16 10:30 17.17622 -62.18367 6958 ft 261 kts 125°
2026-04-16 10:31 17.16588 -62.16806 6642 ft 260 kts 124°
2026-04-16 10:31 17.15568 -62.15250 6297 ft 259 kts 124°
2026-04-16 10:31 17.14558 -62.13695 5957 ft 258 kts 124°
2026-04-16 10:31 17.13553 -62.12138 5632 ft 257 kts 123°
2026-04-16 10:32 17.12557 -62.10586 5283 ft 256 kts 123°
2026-04-16 10:32 17.11569 -62.09042 4972 ft 255 kts 123°
2026-04-16 10:32 17.10589 -62.07509 4660 ft 253 kts 123°
2026-04-16 10:32 17.09616 -62.05984 4330 ft 251 kts 123°
2026-04-16 10:33 17.08650 -62.04469 4010 ft 249 kts 122°
2026-04-16 10:33 17.07702 -62.02983 3720 ft 248 kts 123°
2026-04-16 10:33 17.06756 -62.01499 3555 ft 241 kts 122°
2026-04-16 10:33 17.05839 -62.00063 3444 ft 234 kts 122°
2026-04-16 10:34 17.04950 -61.98672 3332 ft 226 kts 122°
2026-04-16 10:34 17.04239 -61.97277 3213 ft 212 kts 103°
2026-04-16 10:34 17.04204 -61.95867 3132 ft 198 kts 83°
2026-04-16 10:34 17.04609 -61.94543 2999 ft 176 kts 65°
2026-04-16 10:35 17.05219 -61.93486 2904 ft 163 kts 63°
2026-04-16 10:35 17.05805 -61.92510 2770 ft 155 kts 62°
2026-04-16 10:35 17.06380 -61.91549 2572 ft 157 kts 62°
2026-04-16 10:35 17.06923 -61.90642 2355 ft 156 kts 64°
2026-04-16 10:36 17.07484 -61.89702 2144 ft 151 kts 63°
2026-04-16 10:36 17.08031 -61.88782 1964 ft 156 kts 63°
2026-04-16 10:36 17.08556 -61.87899 1777 ft 156 kts 63°
2026-04-16 10:36 17.09107 -61.86975 1542 ft 149 kts 62°
2026-04-16 10:37 17.09671 -61.86030 1384 ft 153 kts 63°
2026-04-16 10:37 17.10220 -61.85101 1161 ft 148 kts 64°
2026-04-16 10:37 17.10773 -61.84159 980 ft 156 kts 62°
2026-04-16 10:37 17.11339 -61.83199 654 ft 155 kts 60°
2026-04-16 10:38 17.11891 -61.82268 521 ft 146 kts 60°
2026-04-16 10:38 17.12433 -61.81409 386 ft 136 kts 60°
2026-04-16 10:38 17.12922 -61.80552 122 ft 134 kts 60°
2026-04-16 10:38 17.13403 -61.79731 67 ft 123 kts 60°
2026-04-16 10:39 17.13767 -61.79107 67 ft 53 kts 58°
2026-04-16 10:39 17.13816 -61.79058 62 ft 5 kts 337°
2026-04-16 10:39 17.13886 -61.79136 60 ft 17 kts 324°
2026-04-16 10:39 17.13953 -61.79180 62 ft 0 kts 327°